sat.trackr.live / text

‹ back to catalog

STARLINK-11130 [DTC]

NORAD 59950 · 2024-107F

PAYLOAD ACTIVE UNKNOWN

§ Identity

Operator
Country
US
Launch date
2024-06-05
Launch site
AFETR
Launch vehicle
Mass (kg)
RCS (m²)

Purposes: comms

External: N2YO · Heavens-Above · Gunter

§ Orbital elements

Epoch: 2026-09-21T18:55:48.238464Z

Period
91.74 min
Inclination
53.1587°
Eccentricity
0.0001186
Mean motion
15.69707362 rev/d
Perigee alt
358.9 km
Apogee alt
360.5 km
Semi-major
6,737.9 km
B*
-1.2161e-6
RAAN
4.7075°
Arg perigee
64.2611°
Mean anomaly
295.8529°
Rev number
13,294

§ Raw data

STARLINK-11130 [DTC]1 59950U 24107F   26264.78875276 -.00000736  00000+0 -12161-5 0  99952 59950  53.1587   4.7075 0001186  64.2611 295.8529 15.69707362132943

JSON: /api/v1/satellites/59950 · /tle

For live sub-satellite position, see the globe view (requires WebGL).

§ Visibility from observer

Set your observer location to see the next 7 days of passes ≥ 10°. The values pass through the URL so the page stays shareable.

No JS? Fill the form by hand. The geolocation button needs JavaScript.